CW8164 Weather Reports


Display with metric or nautical units.
time (UTC)temp
F
wind
direction
speed
MPH
gust
MPH
rain 1hr
in
rain 24hr
in
rain mn
in
humidity
%
barometer
mb
20260831212404 85 202 2.0 6.0 0.00 0.00 0.00 40 1007.7
20260831211904 84 273 2.0 5.0 0.00 0.00 0.00 40 1007.7
20260831210903 83 227 1.0 7.0 0.00 0.00 0.00 40 1007.8
20260831210403 83 50 1.0 6.0 0.00 0.00 0.00 42 1007.9
20260831205904 82 270 2.0 6.0 0.00 0.00 0.00 41 1007.9
20260831205403 82 123 1.0 6.0 0.00 0.00 0.00 41 1008.0
20260831204904 82 240 2.0 6.0 0.00 0.00 0.00 43 1008.0
20260831204403 82 224 2.0 6.0 0.00 0.00 0.00 42 1008.1
20260831203904 81 285 1.0 6.0 0.00 0.00 0.00 43 1008.2
20260831203404 81 220 1.0 6.0 0.00 0.00 0.00 42 1008.2
20260831202404 81 124 1.0 7.0 0.00 0.00 0.00 44 1008.4
20260831201903 81 3 1.0 7.0 0.00 0.00 0.00 45 1008.5
20260831201404 80 236 1.0 7.0 0.00 0.00 0.00 45 1008.5
20260831200903 80 236 2.0 7.0 0.00 0.00 0.00 46 1008.6
20260831200403 79 264 2.0 7.0 0.00 0.00 0.00 47 1008.7
20260831195904 79 198 1.0 7.0 0.00 0.00 0.00 47 1008.8
20260831195404 78 321 0.0 6.0 0.00 0.00 0.00 48 1008.9
20260831194904 78 165 2.0 5.0 0.00 0.00 0.00 48 1009.0
20260831194404 78 85 1.0 5.0 0.00 0.00 0.00 50 1009.0
20260831193903 77 300 1.0 5.0 0.00 0.00 0.00 48 1009.1
20260831193403 77 85 0.0 5.0 0.00 0.00 0.00 49 1009.1
20260831192903 76 346 1.0 5.0 0.00 0.00 0.00 50 1009.2
20260831192403 76 317 2.0 6.0 0.00 0.00 0.00 51 1009.2
20260831191904 76 6 1.0 7.0 0.00 0.00 0.00 51 1009.3
20260831191403 76 52 3.0 7.0 0.00 0.00 0.00 52 1009.4
20260831190903 75 58 1.0 7.0 0.00 0.00 0.00 52 1009.6
20260831190403 75 185 2.0 3.0 0.00 0.00 0.00 51 1009.7
20260831185903 75 155 0.0 6.0 0.00 0.00 0.00 52 1009.7
20260831185404 74 237 1.0 6.0 0.00 0.00 0.00 54 1009.8
20260831184903 74 268 2.0 3.0 0.00 0.00 0.00 54 1009.9
20260831184404 74 197 1.0 3.0 0.00 0.00 0.00 54 1009.8
20260831183903 73 236 1.0 3.0 0.00 0.00 0.00 55 1010.0
20260831183404 73 219 1.0 3.0 0.00 0.00 0.00 55 1010.2
20260831182904 72 72 0.0 3.0 0.00 0.00 0.00 57 1010.2
20260831182403 72 285 2.0 5.0 0.00 0.00 0.00 56 1010.2
20260831181904 71 283 1.0 5.0 0.00 0.00 0.00 59 1010.4
20260831181403 71 145 1.0 5.0 0.00 0.00 0.00 59 1010.3
20260831180904 70 162 0.0 3.0 0.00 0.00 0.00 59 1010.4
20260831180403 70 3 1.0 5.0 0.00 0.00 0.00 59 1010.5
20260831175903 70 127 0.0 5.0 0.00 0.00 0.00 60 1010.5
20260831175404 70 233 1.0 5.0 0.00 0.00 0.00 59 1010.5
20260831174904 70 348 1.0 2.0 0.00 0.00 0.00 62 1010.6
20260831174404 69 348 1.0 3.0 0.00 0.00 0.00 63 1010.6
20260831173903 68 235 1.0 3.0 0.00 0.00 0.00 63 1010.6
20260831173403 68 215 1.0 5.0 0.00 0.00 0.00 65 1010.7
20260831172904 67 189 2.0 5.0 0.00 0.00 0.00 64 1010.8
20260831172403 67 240 0.0 5.0 0.00 0.00 0.00 67 1010.8
20260831171903 67 295 1.0 5.0 0.00 0.00 0.00 67 1010.9
20260831170903 66 254 1.0 5.0 0.00 0.00 0.00 68 1010.9
20260831165903 65 232 0.0 2.0 0.00 0.00 0.00 70 1010.9
20260831165404 65 321 0.0 3.0 0.00 0.00 0.00 70 1010.8
20260831164903 64 190 1.0 3.0 0.00 0.00 0.00 71 1010.9
20260831164403 64 248 1.0 3.0 0.00 0.00 0.00 72 1011.0
20260831162903 62 280 1.0 3.0 0.00 0.00 0.00 74 1011.2
20260831161903 62 203 0.0 5.0 0.00 0.00 0.00 77 1011.3
20260831161404 61 275 0.0 3.0 0.00 0.00 0.00 77 1011.3
20260831160904 61 263 1.0 2.0 0.00 0.00 0.00 78 1011.4
20260831160404 60 198 1.0 2.0 0.00 0.00 0.00 78 1011.3
20260831155904 60 141 0.0 2.0 0.00 0.00 0.00 79 1011.5
20260831155404 59 232 0.0 2.0 0.00 0.00 0.00 81 1011.5
20260831154904 59 249 0.0 1.0 0.00 0.00 0.00 82 1011.5
20260831153904 57 286 0.0 3.0 0.00 0.00 0.00 83 1011.6
20260831153404 57 258 1.0 3.0 0.00 0.00 0.00 84 1011.7
20260831152903 57 227 0.0 0.0 0.00 0.00 0.00 85 1011.7
20260831152404 56 252 0.0 0.0 0.00 0.00 0.00 86 1011.6
20260831151903 56 132 0.0 0.0 0.00 0.00 0.00 88 1011.6
20260831151404 56 85 0.0 0.0 0.00 0.00 0.00 88 1011.6
20260831150904 55 85 0.0 0.0 0.00 0.00 0.00 89 1011.7
20260831150404 54 84 0.0 0.0 0.00 0.00 0.00 91 1011.7
20260831145904 53 90 0.0 0.0 0.00 0.00 0.00 90 1011.8
20260831145403 52 90 0.0 0.0 0.00 0.00 0.00 90 1011.8
20260831144903 51 87 0.0 0.0 0.00 0.00 0.00 91 1011.7
20260831144404 51 112 0.0 0.0 0.00 0.00 0.00 92 1011.8
20260831143403 49 92 0.0 0.0 0.00 0.00 0.00 94 1011.7
20260831142903 48 90 0.0 0.0 0.00 0.00 0.00 95 1011.7
20260831142404 48 90 0.0 0.0 0.00 0.00 0.00 95 1011.8
20260831141903 47 90 0.0 0.0 0.00 0.00 0.00 95 1011.8
20260831141404 47 90 0.0 0.0 0.00 0.00 0.00 94 1011.8
20260831140404 46 90 0.0 0.0 0.00 0.00 0.00 94 1011.9
20260831135904 46 90 0.0 0.0 0.00 0.00 0.00 94 1011.9
20260831134904 46 90 0.0 0.0 0.00 0.00 0.00 94 1011.8
20260831134403 45 90 0.0 0.0 0.00 0.00 0.00 94 1011.9
20260831133404 46 90 0.0 0.0 0.00 0.00 0.00 94 1011.8
20260831132904 46 90 0.0 0.0 0.00 0.00 0.00 93 1011.9
20260831132403 46 90 0.0 0.0 0.00 0.00 0.00 93 1011.9
20260831131903 46 90 0.0 0.0 0.00 0.00 0.00 93 1012.0
20260831131403 46 90 0.0 0.0 0.00 0.00 0.00 93 1012.0
20260831130903 46 90 0.0 0.0 0.00 0.00 0.00 94 1012.0
20260831130403 46 90 0.0 0.0 0.00 0.00 0.00 93 1012.0
20260831125904 46 90 0.0 0.0 0.00 0.00 0.00 93 1012.1
20260831125404 46 90 0.0 0.0 0.00 0.00 0.00 93 1012.1
20260831124903 46 90 0.0 0.0 0.00 0.00 0.00 93 1012.1
20260831124403 46 90 0.0 0.0 0.00 0.00 0.00 93 1012.1
20260831123904 46 90 0.0 0.0 0.00 0.00 0.00 93 1012.2
20260831123404 46 90 0.0 0.0 0.00 0.00 0.00 93 1012.2
20260831122404 47 90 0.0 0.0 0.00 0.00 0.00 93 1012.3
20260831121904 47 90 0.0 0.0 0.00 0.00 0.00 93 1012.4
20260831121403 47 90 0.0 0.0 0.00 0.00 0.00 93 1012.5
20260831120904 47 90 0.0 0.0 0.00 0.00 0.00 93 1012.5
20260831120404 47 90 0.0 0.0 0.00 0.00 0.00 93 1012.5
20260831115904 47 90 0.0 0.0 0.00 0.00 0.00 93 1012.4
20260831115404 47 90 0.0 0.0 0.00 0.00 0.00 93 1012.4
20260831114903 47 90 0.0 0.0 0.00 0.00 0.00 93 1012.4
20260831114404 47 90 0.0 0.0 0.00 0.00 0.00 93 1012.4
20260831113903 47 94 0.0 0.0 0.00 0.00 0.00 93 1012.4
20260831112404 47 94 0.0 0.0 0.00 0.00 0.00 93 1012.6
20260831111903 47 94 0.0 0.0 0.00 0.00 0.00 93 1012.6
20260831111404 48 94 0.0 0.0 0.00 0.00 0.00 93 1012.6
20260831110903 48 94 0.0 0.0 0.00 0.00 0.00 93 1012.7
20260831110403 47 94 0.0 0.0 0.00 0.00 0.00 93 1012.7
20260831105904 48 112 0.0 0.0 0.00 0.00 0.00 93 1012.8
20260831105404 48 128 0.0 0.0 0.00 0.00 0.00 93 1012.8
20260831104903 48 128 0.0 0.0 0.00 0.00 0.00 93 1012.8
20260831104404 48 128 0.0 0.0 0.00 0.00 0.00 93 1012.8
20260831103903 48 128 0.0 0.0 0.00 0.00 0.00 93 1012.8
20260831103404 48 128 0.0 0.0 0.00 0.00 0.00 93 1012.8
20260831102904 48 128 0.0 0.0 0.00 0.00 0.00 93 1012.9
20260831102403 48 128 0.0 0.0 0.00 0.00 0.00 93 1013.0
20260831101904 48 128 0.0 0.0 0.00 0.00 0.00 92 1013.0
20260831101403 48 128 0.0 0.0 0.00 0.00 0.00 93 1013.0
20260831100904 48 128 0.0 0.0 0.00 0.00 0.00 93 1013.1
20260831100404 48 128 0.0 0.0 0.00 0.00 0.00 92 1013.1
20260831095903 49 128 0.0 0.0 0.00 0.00 0.00 92 1013.1
20260831095403 49 128 0.0 0.0 0.00 0.00 0.00 92 1013.2
20260831094903 49 128 0.0 0.0 0.00 0.00 0.00 92 1013.2
20260831094404 49 128 0.0 0.0 0.00 0.00 0.00 92 1013.2
20260831093904 49 128 0.0 0.0 0.00 0.00 0.00 92 1013.3
20260831093404 49 128 0.0 0.0 0.00 0.00 0.00 92 1013.3
20260831092904 49 128 0.0 0.0 0.00 0.00 0.00 92 1013.4
20260831091904 49 128 0.0 0.0 0.00 0.00 0.00 91 1013.5
20260831091404 49 128 0.0 0.0 0.00 0.00 0.00 92 1013.5
20260831090903 49 128 0.0 0.0 0.00 0.00 0.00 91 1013.5
20260831090403 49 128 0.0 0.0 0.00 0.00 0.00 91 1013.5
20260831085904 50 128 0.0 0.0 0.00 0.00 0.00 91 1013.6
20260831085403 50 128 0.0 0.0 0.00 0.00 0.00 91 1013.7
20260831084903 50 128 0.0 0.0 0.00 0.00 0.00 91 1013.7
20260831084404 50 128 0.0 0.0 0.00 0.00 0.00 90 1013.8
20260831083903 50 128 0.0 0.0 0.00 0.00 0.00 91 1013.8
20260831083404 50 128 0.0 0.0 0.00 0.00 0.00 90 1013.8
20260831082903 50 128 0.0 0.0 0.00 0.00 0.00 90 1013.8
20260831082404 51 128 0.0 0.0 0.00 0.00 0.00 90 1013.9
20260831081903 51 128 0.0 0.0 0.00 0.00 0.00 90 1013.9
20260831081404 51 128 0.0 0.0 0.00 0.00 0.00 90 1013.8
20260831080904 51 128 0.0 0.0 0.00 0.00 0.00 90 1013.9
20260831075904 51 128 0.0 0.0 0.00 0.00 0.00 90 1014.0
20260831075404 51 128 0.0 0.0 0.00 0.00 0.00 90 1014.1
20260831074904 51 128 0.0 0.0 0.00 0.00 0.00 90 1014.1
20260831073903 51 128 0.0 0.0 0.00 0.00 0.00 89 1014.2
20260831073403 51 128 0.0 0.0 0.00 0.00 0.00 89 1014.2
20260831072903 52 128 0.0 0.0 0.00 0.00 0.00 89 1014.3
20260831072403 52 143 0.0 0.0 0.00 0.00 0.00 89 1014.4
20260831071903 52 143 0.0 0.0 0.00 0.00 0.00 89 1014.3
20260831070903 52 175 0.0 0.0 0.00 0.00 0.00 88 1014.3
20260831070402 52 175 0.0 0.0 0.00 0.00 0.00 87 1014.3
20260831065902 53 175 0.0 0.0 0.00 0.00 0.00 87 1014.4
20260831065402 53 175 0.0 0.0 0.00 0.00 0.00 87 1014.4
20260831064902 53 175 0.0 0.0 0.00 0.00 0.00 88 1014.6
20260831063402 53 175 0.0 1.0 0.00 0.00 0.00 88 1014.6
20260831062902 53 175 0.0 1.0 0.00 0.00 0.00 87 1014.6
20260831062402 54 175 0.0 0.0 0.00 0.00 0.00 87 1014.7
20260831060902 54 175 0.0 0.0 0.00 0.00 0.00 85 1014.7
20260831060402 54 175 0.0 0.0 0.00 0.00 0.00 85 1014.9
20260831055902 55 175 0.0 0.0 0.00 0.00 0.00 85 1014.9
20260831055403 55 175 0.0 0.0 0.00 0.00 0.00 84 1015.0
20260831054903 55 175 0.0 0.0 0.00 0.00 0.00 83 1015.0
20260831054403 55 175 0.0 0.0 0.00 0.00 0.00 84 1015.0
20260831053903 55 175 0.0 0.0 0.00 0.00 0.00 83 1015.0
20260831053403 56 175 0.0 0.0 0.00 0.00 0.00 83 1015.2
20260831052902 56 175 0.0 0.0 0.00 0.00 0.00 83 1015.2
20260831052403 56 175 0.0 0.0 0.00 0.00 0.00 82 1015.2
20260831051903 56 175 0.0 0.0 0.00 0.00 0.00 82 1015.3
20260831051403 57 175 0.0 0.0 0.00 0.00 0.00 81 1015.3
20260831050903 57 175 0.0 0.0 0.00 0.00 0.00 81 1015.3
20260831050403 57 181 0.0 0.0 0.00 0.00 0.00 79 1015.3
20260831045902 57 182 0.0 0.0 0.00 0.00 0.00 79 1015.3
20260831045402 58 182 0.0 0.0 0.00 0.00 0.00 79 1015.3
20260831044902 58 182 0.0 0.0 0.00 0.00 0.00 77 1015.4
20260831044402 58 182 0.0 0.0 0.00 0.00 0.00 78 1015.4
20260831043402 59 182 0.0 0.0 0.00 0.00 0.00 76 1015.5
20260831042903 60 182 0.0 0.0 0.00 0.00 0.00 75 1015.5
20260831042402 60 182 0.0 0.0 0.00 0.00 0.00 75 1015.5
20260831041902 60 182 0.0 0.0 0.00 0.00 0.00 74 1015.5
20260831040902 61 182 0.0 0.0 0.00 0.00 0.00 72 1015.5
20260831035903 62 183 0.0 1.0 0.00 0.00 0.00 71 1015.5
20260831035402 62 184 0.0 0.0 0.00 0.00 0.00 71 1015.5
20260831034902 62 184 0.0 0.0 0.00 0.00 0.00 69 1015.5
20260831033902 63 184 0.0 0.0 0.00 0.00 0.00 68 1015.4
20260831033402 63 184 0.0 0.0 0.00 0.00 0.00 67 1015.4
20260831031902 64 183 0.0 0.0 0.00 0.00 0.00 65 1015.5
20260831030903 65 207 0.0 0.0 0.00 0.00 0.00 64 1015.5
20260831030402 66 187 0.0 6.0 0.00 0.00 0.00 63 1015.5
20260831025902 66 187 0.0 6.0 0.00 0.00 0.00 62 1015.5
20260831025403 66 273 0.0 2.0 0.00 0.00 0.00 61 1015.5
20260831024902 67 299 0.0 2.0 0.00 0.00 0.00 61 1015.6
20260831024403 67 303 0.0 3.0 0.00 0.00 0.00 60 1015.6
20260831023902 67 180 1.0 3.0 0.00 0.00 0.00 59 1015.6
20260831023402 68 243 0.0 3.0 0.00 0.00 0.00 59 1015.6
20260831022902 68 220 0.0 3.0 0.00 0.00 0.00 58 1015.6
20260831022403 68 230 0.0 5.0 0.00 0.00 0.00 58 1015.7
20260831021903 69 200 1.0 5.0 0.00 0.00 0.00 57 1015.7
20260831021403 69 214 1.0 3.0 0.00 0.00 0.00 57 1015.7
20260831020903 69 226 0.0 3.0 0.00 0.00 0.00 56 1015.8
20260831020403 69 259 0.0 5.0 0.00 0.00 0.00 56 1015.8
20260831015902 69 299 1.0 5.0 0.00 0.00 0.00 55 1015.8
20260831015402 70 174 0.0 5.0 0.00 0.00 0.00 55 1015.8
20260831014903 70 293 1.0 5.0 0.00 0.00 0.00 55 1015.9
20260831014403 70 222 0.0 2.0 0.00 0.00 0.00 55 1015.9
20260831013903 70 110 1.0 5.0 0.00 0.00 0.00 54 1016.0
20260831013402 71 241 0.0 5.0 0.00 0.00 0.00 53 1016.1
20260831012903 71 218 0.0 3.0 0.00 0.00 0.00 53 1016.1
20260831011403 71 0 1.0 3.0 0.00 0.00 0.00 52 1016.2
20260831010902 72 0 1.0 3.0 0.00 0.00 0.00 52 1016.3
20260831010402 72 0 1.0 7.0 0.00 0.00 0.00 51 1016.3
20260831005902 72 356 1.0 7.0 0.00 0.00 0.00 50 1016.3
20260831005403 73 0 1.0 7.0 0.00 0.00 0.00 49 1016.3
20260831004902 73 0 2.0 5.0 0.00 0.00 0.00 49 1016.4
20260831004402 74 0 2.0 5.0 0.00 0.00 0.00 48 1016.4
20260831003403 74 0 1.0 6.0 0.00 0.00 0.00 49 1016.5
20260831002902 74 0 2.0 5.0 0.00 0.00 0.00 48 1016.6
20260831002402 74 0 1.0 5.0 0.00 0.00 0.00 47 1016.6
20260831001902 74 0 2.0 6.0 0.00 0.00 0.00 47 1016.7
20260831001403 74 0 1.0 6.0 0.00 0.00 0.00 49 1016.6
20260831000903 74 0 0.0 8.0 0.00 0.00 0.00 49 1016.7
20260831000403 74 0 2.0 8.0 0.00 0.00 0.00 48 1016.6
20260830235902 74 0 1.0 9.0 0.00 0.00 0.00 48 1016.7
20260830235402 73 0 0.0 9.0 0.00 0.00 0.00 48 1016.7
20260830234903 73 0 3.0 8.0 0.00 0.00 0.00 48 1016.8
20260830234403 74 0 1.0 6.0 0.00 0.00 0.00 49 1016.8
20260830233902 74 0 2.0 9.0 0.00 0.00 0.00 48 1016.9
20260830233402 74 0 2.0 9.0 0.00 0.00 0.00 48 1016.9
20260830232902 74 0 3.0 12.0 0.00 0.00 0.00 47 1017.0
20260830232402 75 0 2.0 12.0 0.00 0.00 0.00 46 1017.1
20260830231903 75 0 1.0 5.0 0.00 0.00 0.00 47 1017.1
20260830231403 74 0 0.0 7.0 0.00 0.00 0.00 48 1017.1
20260830230902 74 0 2.0 7.0 0.00 0.00 0.00 46 1017.2
20260830230402 74 0 1.0 8.0 0.00 0.00 0.00 48 1017.2
20260830225902 74 0 4.0 8.0 0.00 0.00 0.00 46 1017.4
20260830225403 74 0 2.0 6.0 0.00 0.00 0.00 47 1017.4
20260830224903 74 344 1.0 8.0 0.00 0.00 0.00 46 1017.4
20260830224403 74 186 2.0 8.0 0.00 0.00 0.00 46 1017.5
20260830223903 74 237 2.0 6.0 0.00 0.00 0.00 47 1017.5
20260830223403 74 219 2.0 7.0 0.00 0.00 0.00 47 1017.8
20260830222902 73 219 2.0 7.0 0.00 0.00 0.00 49 1017.8
20260830221902 73 204 1.0 5.0 0.00 0.00 0.00 47 1018.0
20260830221403 73 97 2.0 6.0 0.00 0.00 0.00 47 1018.1
20260830220903 72 276 1.0 6.0 0.00 0.00 0.00 49 1018.2
20260830220402 72 195 2.0 6.0 0.00 0.00 0.00 48 1018.2
20260830215902 71 17 1.0 6.0 0.00 0.00 0.00 49 1018.3
20260830215403 72 29 3.0 7.0 0.00 0.00 0.00 49 1018.4
20260830214403 71 190 1.0 9.0 0.00 0.00 0.00 49 1018.5
20260830213903 71 19 4.0 9.0 0.00 0.00 0.00 49 1018.6
20260830213402 71 286 1.0 6.0 0.00 0.00 0.00 49 1018.6
20260830212903 71 232 1.0 8.0 0.00 0.00 0.00 50 1018.7